Flag for Germany Weather past 2 weeks in Salzwedel, Saxony-Anhalt, Germany

Now
55 °F

Fog.


Feels Like: 54 °F
Forecast: 54 / 73 °F
Wind: 6 mph from West

Location: Fassberg

Current Time: Aug 28, 2015 at 7:18:07 AM

Latest Report: Aug 28, 2015 at 6:20 AM


Visibility: 2 mi

Pressure: 29.92 "Hg

Humidity: 94%

Dew point: 54 °F

Location of SalzwedelLocation

Historic Weather in Salzwedel — Graph

°F

Salzwedel temperature yesterday

Maximum temperature yesterday: 68 °F (at 12:20 AM)
Minimum temperature yesterday: 57 °F (at 8:20 PM)
Average temperature yesterday: 64 °F

Past Weeks' High & Low Weather Summary

 TemperatureHumidityPressure
High88 °F (Aug 14, 4:20 PM)100% (Aug 14, 11:20 PM)30.30 "Hg (Aug 14, 11:20 PM)
Low46 °F (Aug 21, 5:45 AM)34% (Aug 22, 5:20 PM)29.62 "Hg (Aug 24, 6:20 PM)
Average65 °F80%29.95 "Hg
* Reported Aug 13 5:20 AM — Aug 28 5:20 AM, Salzwedel, Weather by CustomWeather, © 2015

Note: Actual official high and low records may vary slightly from our data, if they occured in-between our weather recording intervals... More about our weather records

Advertising

Salzwedel weather history for previous 24 hours

 ConditionsComfort  
Time TempWeatherWind HumidityBarometerVisibility
5:20 AM
Fri, Aug 28
55 °FPartly cloudy.7 mph94%29.92 "Hg5 mi
4:20 AM55 °FMostly cloudy.7 mph94%29.92 "HgN/A
3:20 AM55 °FPassing clouds.7 mph94%29.89 "HgN/A
2:20 AM55 °FLight rain. Partly cloudy.5 mph94%29.86 "HgN/A
1:20 AM55 °FLight rain. Passing clouds.8 mph94%29.89 "HgN/A
12:48 AM55 °FRain. Overcast.7 mph94%29.86 "HgN/A
12:20 AM55 °FRain. Low clouds.7 mph94%29.86 "Hg4 mi
11:20 PM
Thu, Aug 27
57 °FRain. Mostly cloudy.2 mph94%29.86 "Hg4 mi
10:50 PM57 °FLight rain. Mostly cloudy.3 mph94%29.86 "Hg5 mi
10:20 PM57 °FRain. Passing clouds.3 mph94%29.86 "Hg4 mi
9:20 PM57 °FRain. Mostly cloudy.6 mph94%29.86 "Hg5 mi
8:20 PM57 °FLight rain. Fog.3 mph94%29.83 "Hg3 mi
7:20 PM59 °FLight rain. Fog.7 mph94%29.83 "Hg2 mi
6:20 PM61 °FLight rain. Fog.5 mph94%29.83 "Hg2 mi
5:20 PM63 °FLight rain. More clouds than sun.3 mph88%29.86 "Hg4 mi
4:20 PM64 °FLight rain. Mostly cloudy.8 mph88%29.86 "HgN/A
3:20 PM66 °FLight rain. More clouds than sun.7 mph83%29.83 "HgN/A
2:20 PM68 °FLight rain. Broken clouds.8 mph78%29.83 "HgN/A
1:20 PM68 °FLight rain. Broken clouds.12 mph73%29.83 "HgN/A
12:20 PM68 °FRain. Broken clouds.8 mph73%29.83 "HgN/A
11:20 AM68 °FBroken clouds.9 mph73%29.83 "HgN/A
10:20 AM68 °FBroken clouds.5 mph73%29.80 "HgN/A
9:20 AM64 °FBroken clouds.6 mph78%29.80 "HgN/A
8:20 AM64 °FLight rain. Broken clouds.6 mph78%29.80 "HgN/A
7:20 AM66 °FLight rain. Partly sunny.6 mph64%29.77 "HgN/A
Weather by CustomWeather, © 2015

See weather overviewHow to use our weather pages